Regional Weather Roundup
Issued by NWS

Home | Current Version | Previous Version | Text Only | Print | Product List | Glossary Off
Versions: 1 2 3 4 5 6 7 8 9 10 11 12 13 14 15 16 17 18 19 20 21 22 23 24 25 26 27 28 29 30 31 32 33 34 35 36 37 38 39 40 41 42 43 44 45 46 47 48 49 50

000
ASUS43 KDMX 260107
RWRIA

WEATHER ROUNDUP FOR IOWA
NATIONAL WEATHER SERVICE DES MOINES IA
800 PM CDT MON MAY 25 2015

NOTE: "FAIR" INDICATES FEW OR NO CLOUDS BELOW 12,000 FEET WITH NO
SIGNIFICANT WEATHER AND/OR OBSTRUCTIONS TO VISIBILITY.

* - THESE STATIONS ARE NOT NWS STATIONS...THUS NOT UNDER NWS
QUALITY CONTROL.  THEY ALSO DO NOT REPORT WEATHER SUCH
AS PRECIPITATION OR FOG.

IAZ001>003-012>014-020>022-031>034-043>046-260200-
   NORTHWEST IOWA

CITY           SKY/WX    TMP DP  RH WIND       PRES   REMARKS
CARROLL *      MOCLDY    72  66  83 N5        29.78R
CHEROKEE *     CLEAR     73  61  64 S5        29.75F
DENISON *      MOCLDY    68  64  88 SW7       29.76R
LE MARS *      PTCLDY    70  61  73 N15       29.75S
ORANGE CITY *  LGT RAIN  64  61  88 N3        29.77R
SHELDON *      CLOUDY    70 -38   1 N8        29.75S
SIOUX CITY     PTCLDY    77  56  48 SW8       29.73S
SPENCER        PTCLDY    72  57  59 SW9       29.76R
STORM LAKE *   CLEAR     75  55  50 S9        29.79R
$$

IAZ055>058-069>071-079>083-090>094-260200-
   SOUTHWEST IOWA

CITY           SKY/WX    TMP DP  RH WIND       PRES   REMARKS
ATLANTIC *     CLEAR     73  66  78 S13       29.77F
AUDUBON *      CLEAR     72  64  78 S10G16    29.79R
CLARINDA *     LGT RAIN  68  64  88 S6        29.84F
COUNCIL BLFS * CLOUDY    66  66 100 S13       29.78R FOG
CRESTON *      MOCLDY    70  66  88 W5        29.81F
HARLAN  *      CLEAR     73  70  88 S16G22    29.79R
LAMONI         CLOUDY    76  65  68 SE9       29.82S
RED OAK *      CLOUDY    70  64  83 S15       29.79F
SHENANDOAH *   CLOUDY    66  61  82 S23G31    29.84R HAZE
$$

IAZ047>049-059>061-072>074-084-260200-
   CENTRAL IOWA

CITY           SKY/WX    TMP DP  RH WIND       PRES   REMARKS
AMES           CLOUDY    73  64  73 S13       29.79R
ANKENY *       PTCLDY    75  64  69 S12G17    29.80S
CHARITON *     CLEAR     73  66  78 S10       29.82F
DES MOINES     CLOUDY    75  64  68 S9        29.80R
GRINNELL*      MOCLDY    73  64  73 S10       29.84S
KNOXVILLE *    CLEAR     73  64  73 S10       29.81F
MARSHALLTOWN   MOCLDY    74  64  71 S13       29.80R
PELLA *        CLOUDY    73  68  83 S6        29.84S
PERRY *          N/A     73  64  73 S15       29.79R
$$

IAZ004>006-015-016-023>025-035-036-260200-
   NORTH CENTRAL IOWA

CITY           SKY/WX    TMP DP  RH WIND       PRES   REMARKS
ALGONA *       CLEAR     75 -29   1 SW10      29.78R
CLARION *      PTCLDY    75  61  60 SW9       29.79R
ESTHERVILLE    PTCLDY    72  55  55 SW10      29.75R
FORT DODGE *   PTCLDY    72  61  68 SW8       29.80R
MASON CITY     CLEAR     74  57  55 SW9       29.80R
FOREST CITY *  CLEAR     70  55  60 SW8       29.79R
IOWA FALLS *   MOCLDY    72  64  78 S5        29.81S
$$

IAZ007>011-017>019-026>030-037>042-050>054-066-260200-
   NORTHEAST IOWA

CITY           SKY/WX    TMP DP  RH WIND       PRES   REMARKS
CEDAR RAPIDS   PTCLDY    73  64  73 S9        29.84R
CHARLES CITY * CLEAR     75  61  60 SW10      29.80R
CLINTON *      CLEAR     73  61  64 S14       29.89R
DECORAH *      PTCLDY    73  61  64 S8        29.80R
DUBUQUE        MOCLDY    72  61  68 S13       29.86R
MONTICELLO *   CLEAR     73  64  73 S10       29.85R
OELWEIN *      MOCLDY    73  64  73 S12       29.83R
WATERLOO       MOCLDY    73  64  73 S9        29.80R
$$

IAZ064-065-067-068-078-260200-
   EAST CENTRAL IOWA

CITY           SKY/WX    TMP DP  RH WIND       PRES   REMARKS
DAVENPORT      PTCLDY    75  59  57 S13       29.89R
IOWA CITY      PTCLDY    74  64  71 S7        29.87R
MT. PLEASANT * CLEAR     73  64  73 S6        29.87F
MUSCATINE *    CLEAR     75  63  64 S10       29.87R
QUAD CITIES    CLEAR     75  61  61 S6        29.88R
$$

IAZ062-063-075>077-085>089-095>099-260200-
   SOUTHEAST IOWA

CITY           SKY/WX    TMP DP  RH WIND       PRES   REMARKS
BURLINGTON     CLEAR     75  65  70 S6        29.88R
FAIRFIELD *    CLEAR     75  64  69 S10       29.86S
FORT MADISON * CLEAR     73  64  73 S6        29.89S
KEOKUK *       CLEAR     75  66  73 S6        29.87S
OSKALOOSA *      N/A     73  64  73 S7        29.86R
CENTERVILLE *  CLEAR     72  72 100 S7        29.87R
OTTUMWA        PTCLDY    73  65  75 S10       29.85R
WASHINGTON *   CLEAR     73  64  73 S12       29.87S
$$

ABBREVIATIONS USED IN REMARKS
   TC - TEMPERATURES IN CELSIUS
  WCI - WIND CHILL INDEX
   HX - HEAT INDEX
  VSB - VISIBILITY
$$




USA.gov is the U.S. government's official web portal to all federal, state and local government web resources and services.